FW2519 Weather Reports


time (UTC)temp
C
wind
direction
speed
KPH
gust
KPH
rain 1hr
cm
rain 24hr
cm
rain mn
cm
humidity
%
barometer
mb
20260906051544 21 257 0.0 0.0 0.00 0.91 0.91 69 956.8
20260906050104 21 257 0.0 0.0 0.00 0.91 0.91 69 957.0
20260906044541 21 257 0.0 0.0 0.00 0.91 0.91 68 957.1
20260906043047 21 257 0.0 0.0 0.00 0.91 0.91 68 957.0
20260906041540 22 257 0.0 0.0 0.00 0.91 0.91 68 957.1
20260906040052 22 257 0.0 0.0 0.00 0.91 0.91 68 957.2
20260906034608 22 257 0.0 0.0 0.00 0.91 0.91 67 957.4
20260906033008 22 257 0.0 0.0 0.00 0.91 0.91 67 957.5
20260906031510 22 257 0.0 0.0 0.00 0.91 0.91 64 957.2
20260906030003 22 257 0.0 0.0 0.00 0.91 0.91 60 957.3
20260906024502 22 258 0.0 0.0 0.00 0.91 0.91 57 957.3
20260906023130 22 258 0.0 0.0 0.00 0.91 0.91 50 957.1
20260906021559 22 281 0.0 0.0 0.00 0.91 0.91 44 956.8
20260906020055 22 281 0.0 0.0 0.00 0.91 0.91 36 956.7
20260906014613 23 281 0.0 0.0 0.00 0.91 0.91 26 956.8
20260906013057 23 281 0.0 0.0 0.00 0.91 0.91 21 956.7
20260906011556 23 281 0.0 0.0 0.00 0.91 0.91 13 956.7
20260906010048 23 285 0.0 0.0 0.00 0.91 0.91 21 956.8
20260906004551 23 286 0.0 0.0 0.00 0.91 0.91 31 956.5
20260906003052 23 286 0.0 3.2 0.00 0.91 0.91 38 956.5
20260906001544 24 286 1.6 3.2 0.00 0.91 0.91 45 956.4
20260906000042 25 328 3.2 4.8 0.00 0.91 0.91 49 956.3
20260905234552 25 333 0.0 1.6 0.00 0.91 0.91 50 956.2
20260905233041 26 333 0.0 1.6 0.00 0.91 0.91 50 956.0
20260905231540 26 331 0.0 3.2 0.00 0.91 0.91 49 955.7
20260905230042 26 331 0.0 4.8 0.00 0.91 0.91 47 955.8
20260905224539 27 349 3.2 6.4 0.00 0.91 0.91 46 955.6
20260905223038 26 343 3.2 4.8 0.00 0.91 0.91 46 955.6
20260905221541 26 269 1.6 4.8 0.00 0.91 0.91 45 955.7
20260905220033 26 294 3.2 6.4 0.00 0.91 0.91 44 955.6
20260905214532 25 351 4.8 12.9 0.00 0.91 0.91 44 955.8
20260905213030 24 320 3.2 8.0 0.00 0.91 0.91 43 956.1
20260905211527 23 291 3.2 11.3 0.00 0.91 0.91 38 956.4
20260905210017 23 334 3.2 6.4 0.00 0.91 0.91 30 956.6
20260905204517 22 273 3.2 9.7 0.00 0.91 0.91 41 957.2
20260905203015 21 286 1.6 6.4 0.03 0.91 0.91 46 957.4
20260905201518 21 323 4.8 6.4 0.08 0.91 0.91 39 957.5
20260905200018 21 167 1.6 4.8 0.71 0.91 0.91 17 957.3
20260905194516 20 190 3.2 4.8 0.91 0.91 0.91 14 957.2
20260905193011 21 98 4.8 11.3 0.89 0.89 0.89 39 956.5
20260905191507 21 269 4.8 19.3 0.84 0.84 0.84 52 957.7
20260905184601 32 30 12.9 27.4 0.00 0.00 0.00 36 957.8
20260905183110 34 15 3.2 9.7 0.00 0.00 0.00 38 956.7
20260905181501 35 155 6.4 12.9 0.00 0.00 0.00 38 955.9
20260905180058 34 213 1.6 16.1 0.00 0.00 0.00 39 956.6
20260905174555 35 19 6.4 14.5 0.00 0.00 0.00 37 957.0
20260905173054 34 300 1.6 11.3 0.00 0.00 0.00 40 957.4
20260905171556 34 24 0.0 8.0 0.00 0.00 0.00 41 957.6
20260905170049 33 37 4.8 11.3 0.00 0.00 0.00 41 957.8
20260905164550 33 227 1.6 8.0 0.00 0.00 0.00 42 958.2
20260905163047 33 260 1.6 6.4 0.00 0.00 0.00 45 958.3
20260905161546 33 176 0.0 6.4 0.00 0.00 0.00 47 958.4
20260905160016 32 336 1.6 6.4 0.00 0.00 0.00 45 958.7
20260905154517 31 148 0.0 4.8 0.00 0.00 0.00 18 958.6
20260905153055 31 165 0.0 0.0 0.00 0.00 0.00 19 958.5
20260905151544 31 301 0.0 0.0 0.00 0.00 0.00 21 958.5
20260905150055 30 248 0.0 0.0 0.00 0.00 0.00 25 958.7
20260905144651 29 236 0.0 0.0 0.00 0.00 0.00 29 958.6
20260905143006 28 296 0.0 0.0 0.00 0.00 0.00 36 958.7
20260905141502 28 223 0.0 0.0 0.00 0.00 0.00 43 958.8
20260905140002 27 206 0.0 0.0 0.00 0.00 0.00 51 958.8
20260905134505 26 223 0.0 0.0 0.00 0.00 0.00 54 958.9
20260905133106 26 253 0.0 0.0 0.00 0.00 0.00 57 958.9
20260905131609 26 190 0.0 0.0 0.00 0.00 0.00 60 959.1
20260905130101 25 175 0.0 0.0 0.00 0.00 0.00 63 959.1
20260905124558 24 157 0.0 0.0 0.00 0.00 0.00 68 959.1
20260905123027 23 156 0.0 0.0 0.00 0.00 0.00 68 959.1
20260905121530 23 156 0.0 0.0 0.00 0.00 0.00 67 958.8
20260905120024 22 156 0.0 0.0 0.00 0.00 0.00 66 958.8
20260905114523 22 156 0.0 0.0 0.00 0.00 0.00 64 958.7
20260905113022 22 180 0.0 0.0 0.00 0.00 0.00 60 958.4
20260905111540 22 180 0.0 0.0 0.00 0.00 0.00 59 958.2
20260905110017 22 180 0.0 0.0 0.00 0.00 0.00 54 957.8
20260905104517 22 180 0.0 0.0 0.00 0.00 0.00 47 957.6
20260905103017 22 180 0.0 0.0 0.00 0.00 0.00 46 957.5
20260905101516 22 165 0.0 0.0 0.00 0.00 0.00 45 957.5
20260905100018 22 165 0.0 0.0 0.00 0.00 0.00 33 957.4
20260905094513 22 165 0.0 0.0 0.00 0.00 0.00 29 957.5
20260905093009 22 165 0.0 0.0 0.00 0.00 0.00 24 957.6
20260905091508 22 165 0.0 0.0 0.00 0.00 0.00 22 957.4
20260905090003 22 165 0.0 0.0 0.00 0.00 0.00 17 957.4
20260905084501 22 165 0.0 0.0 0.00 0.00 0.00 10 957.5
20260905083059 23 165 0.0 0.0 0.00 0.00 0.00 10 957.7
20260905081556 23 165 0.0 0.0 0.00 0.00 0.00 10 957.9
20260905080054 23 165 0.0 0.0 0.00 0.00 0.00 14 957.9
20260905074556 23 165 0.0 0.0 0.00 0.00 0.00 18 958.2
20260905073058 23 165 0.0 0.0 0.00 0.00 0.00 25 958.2
20260905071546 23 165 0.0 3.2 0.00 0.00 0.00 28 958.3
20260905070012 23 165 0.0 4.8 0.00 0.00 0.00 35 958.5
20260905064510 23 296 0.0 0.0 0.00 0.00 0.00 39 958.5
20260905063039 23 296 0.0 0.0 0.00 0.00 0.00 42 958.8
20260905061538 24 296 0.0 0.0 0.00 0.00 0.00 43 958.8
20260905060037 24 296 0.0 0.0 0.00 0.00 0.00 46 959.0
20260905054542 24 296 0.0 3.2 0.00 0.00 0.00 49 959.1
20260905053029 25 296 0.0 1.6 0.00 0.00 0.00 53 959.0